Terminal Aerodrome Forecast
Issued by NWS Milwaukee/Sullivan, WI

Home | Current Version | Previous Version | Text Only | Print | Product List | Glossary On
Versions: 1 2 3 4 5 6 7 8 9 10 11 12 13 14 15 16 17 18 19 20 21 22 23 24 25 26 27 28 29 30 31 32 33 34 35 36 37 38 39 40 41 42 43 44 45 46 47 48 49 50
107
FTUS43 KMKX 091504 AAB
TAFMSN
TAF AMD
KMSN 091504Z 0915/1012 33012G18KT 6SM -SHSN OVC035
      TEMPO 0915/0917 5SM -SHSN BKN025 OVC050
     FM091800 33014G20KT 6SM -SHSN OVC020
     FM100400 33012KT P6SM OVC035
     FM101100 32008KT P6SM SCT090=

USA.gov is the U.S. government's official web portal to all federal, state and local government web resources and services.